TimeCAT,TemperatureF,Dew PointF,Humidity,Sea Level PressureIn,VisibilityMPH,Wind Direction,Wind SpeedMPH,Gust SpeedMPH,PrecipitationIn,Events,Conditions,WindDirDegrees,DateUTC
12:00 AM,68.0,62.6,83,30.15,6.2,NE,3.5,-,N/A,,Scattered Clouds,40,2012-12-26 22:00:00
1:00 AM,66.2,62.6,88,30.12,-9999.0,ENE,5.8,-,N/A,,Clear,60,2012-12-26 23:00:00
2:00 AM,65,62,88,,19,ENE,5.8,,,,Mostly Cloudy,70,2012-12-27 00:00:00
2:00 AM,66.2,62.6,88,30.12,-9999.0,ENE,5.8,-,N/A,,Clear,70,2012-12-27 00:00:00
3:00 AM,64.4,62.6,94,30.12,-9999.0,East,4.6,-,N/A,,Clear,80,2012-12-27 01:00:00
4:00 AM,62.6,60.8,94,30.12,-9999.0,ENE,5.8,-,N/A,,Clear,60,2012-12-27 02:00:00
5:00 AM,62.6,60.8,94,30.09,-9999.0,ENE,6.9,-,N/A,,Clear,70,2012-12-27 03:00:00
6:00 AM,62.6,60.8,94,30.12,-9999.0,NE,4.6,-,N/A,,Clear,40,2012-12-27 04:00:00
7:00 AM,66.2,62.6,88,30.15,6.2,Calm,Calm,-,N/A,,Mostly Cloudy,0,2012-12-27 05:00:00
8:00 AM,73,64,67,,19,NE,8.1,,,,Scattered Clouds,40,2012-12-27 06:00:00
8:00 AM,73.4,64.4,73,30.15,6.2,NE,8.1,-,N/A,,Mostly Cloudy,40,2012-12-27 06:00:00
9:00 AM,73.4,62.6,69,30.15,6.2,NE,4.6,-,N/A,,Scattered Clouds,40,2012-12-27 07:00:00
10:00 AM,75.2,64.4,69,30.15,6.2,East,4.6,-,N/A,,Mostly Cloudy,100,2012-12-27 08:00:00
11:00 AM,75.2,64.4,69,30.12,6.2,ESE,8.1,-,N/A,,Mostly Cloudy,120,2012-12-27 09:00:00
12:00 PM,78.8,64.4,61,30.12,6.2,NNE,11.5,-,N/A,Thunderstorm,Thunderstorm,20,2012-12-27 10:00:00
2:00 PM,75,64,59,,19,NE,10.4,,,Thunderstorm,Thunderstorm,40,2012-12-27 12:00:00
2:00 PM,75.2,64.4,69,30.04,6.2,NE,10.4,-,N/A,Thunderstorm,Thunderstorm,40,2012-12-27 12:00:00
3:00 PM,75.2,62.6,65,30.04,6.2,North,9.2,-,N/A,,Scattered Clouds,360,2012-12-27 13:00:00
4:00 PM,68.0,64.4,88,30.04,6.2,West,8.1,-,N/A,Thunderstorm,Thunderstorm,280,2012-12-27 14:00:00
5:00 PM,69.8,66.2,88,30.04,6.2,Calm,Calm,-,N/A,,Mostly Cloudy,0,2012-12-27 15:00:00
7:00 PM,68.0,66.2,94,30.09,6.2,SSE,3.5,-,N/A,Thunderstorm,Thunderstorm,160,2012-12-27 17:00:00
8:00 PM,67,64,88,,19,SSE,6.9,,,,Partly Cloudy,160,2012-12-27 18:00:00
9:00 PM,-9999,-9999,N/A,30.12,6.2,SSE,5.8,-,N/A,,Mostly Cloudy,150,2012-12-27 19:00:00
10:00 PM,66.2,62.6,88,30.15,6.2,ENE,10.4,-,N/A,,Mostly Cloudy,70,2012-12-27 20:00:00
11:00 PM,64.4,60.8,88,30.12,6.2,ENE,6.9,-,N/A,,Mostly Cloudy,70,2012-12-27 21:00:00